Location: La Brionne
(46.1728°N, 1.7849°E)
Time: 22:30:39
(UTC+00:00)

Cosmos 1626 - Pass Details

Date: 16 June 2021
Orbit: 489 x 493 km, 82.5° (Epoch: 02 August)

Event Time Altitude Azimuth Distance (km) Brightness Sun altitude
Exits shadow 21:27:24 20° 170° (S) 1,201 3.5 -13.0°
Maximum altitude 21:29:48 58° 96° (E) 581 2.2 -13.2°
Drops below altitude 10° 21:33:27 10° 17° (NNE) 1,697 5.4 -13.5°
Sets 21:35:36 0° 13° (NNE) 2,585 6.5 -13.7°
